Showing default

IRIDIUM 144, 43249

Orbit data source: Space-Track

IRIDIUM 144, 43249 is a payload satellite owned by Iridium (US) in LEO that was launched on Fri, 30 Mar 2018 UTC via an FALCON 9 launch vehicle from the Air Force Western Test Range (AFWTR). Payload-class satellites include a variety of spacecraft equipped with specific instruments for various scientific and technological missions. These include communications satellites like Starlink; space stations such as the ISS; scientific satellites like the Hubble; Earth observation satellites from companies like Planet Labs, Umbra, and HawkEye 360; GPS; miniature CubeSats for education and research; and military/defense satellites.

Loading next visibility...
Identifier
43249, 2018-030A
Orbit
LEO
Country
Flag of USUS
Related business
Manufacturer
OATK SSG Gilbert
Mission
Operational Commercial Communications
Bus & Motor
ELITEBUS, Unknown motor
Mass
860 kg wet, 700 kg dry
Launch date (UTC)
2018-03-30 (8 years ago)
Launch vehicle
FALCON 9
Launch site
Air Force Western Test Range (AFWTR)
Object type
Payload
Rocket body
Debris
Shape & HBR
Trap Box + 2 Pan, 4.8 m
Radar Cross Section
10.154 m², Large (>1 m²)

Expand to show TLE details & history
Last TLE update: 13 hours ago

TLE from 13 hours ago
0 IRIDIUM 144
1 43249U 18030A   25307.66897539 -.00000053  00000-0 -26063-4 0  9995
2 43249  86.4002  24.6728 0001930  98.8639 261.2775 14.34217076397812
Epoch: 2025-11-03T16:03Z
TLE epoch observation values (Epoch: 2025-11-03T16:03:19.473Z)
Latitude
-0.00007°
Longitude
100.67462°
Altitude
780.93 km
Speed
7.463 km/s
True Right ascension
01h 38m 41s
True Declination
0° 00' 00"
Sunlit
Object was in full shadow at epoch
Visualization orbit readout
Latitude
Unknown
Longitude
Unknown
Altitude
Unknown
Speed
Unknown
Apparent Right ascension
Unknown
Apparent Declination
Unknown
Sunlit
N/A
Visualization observer readout
Local Sidereal Time
00:35:41
Azimuth
Unknown
Elevation
Unknown
Doppler factor
Unknown
Orbital elements
Apogee altitude
776.014 km
Perigee altitude
773.253 km
Semi-major axis
7,152.771 km
Eccentricity
0.00019
Inclination
86.4002°
RAAN
24.6728°
Arg. of periapsis
98.8639°
True anomaly
261.25564°
Mean anomaly
261.2775°
Eccentric anomaly
261.26657°
Mean motion
3.58783 °/min
Orbital period
100.34 mins
BSTAR
-0.000026063
Loading maneuver chart data...
Computing Atmospheric mass density...
Loading historical data...
Loading historical data...
Loading historical data...
Loading historical data...
Loading historical data...
Loading historical data...
Loading historical data...

Documentation

Showing up to 5 results
|